Simultaneous Nadir Overpasses (SNOs) Predictions

Prediction of SNOs between TERRA and METOP-C Satellite Orbit:

Table of predicted SNOs for the next 14.0 days since TLE Epoch: 1/4/2020
Index Date (TERRA) Time (TERRA) Lat,Lon (TERRA) SZA (TERRA ) Date (METOP-C) Time (METOP-C) Lat,Lon (METOP-C) SZA (METOP-C ) Distance(km) Time Diff (sec)
1 01/06/2020 05:38:37 81.28, 142.15 106.28 01/06/2020 05:38:16 81.28, 142.16 106.27 0.37 21
2 01/06/2020 06:28:04 -81.27, -50.35 73.75 01/06/2020 06:28:56 -81.28, -50.37 73.73 0.87 52
3 01/09/2020 01:12:52 81.28,-151.50 105.88 01/09/2020 01:12:05 81.27,-151.46 105.86 0.65 47
4 01/09/2020 02:02:18 -81.29, 16.41 74.10 01/09/2020 02:02:44 -81.28, 16.48 74.08 1.45 26
5 01/11/2020 20:47:07 81.27, -85.15 105.42 01/11/2020 20:45:54 81.27, -85.08 105.40 1.26 73
6 01/11/2020 21:36:33 -81.29, 82.77 74.55 01/11/2020 21:36:33 -81.28, 82.94 74.53 2.89 0
7 01/11/2020 22:25:59 81.29,-109.47 105.47 01/11/2020 22:27:12 81.29,-109.34 105.51 2.21 73
8 01/14/2020 17:10:47 -81.28, 149.13 75.05 01/14/2020 17:10:22 -81.27, 149.02 75.08 2.09 25
9 01/14/2020 18:00:13 81.29, -43.14 104.96 01/14/2020 18:01:00 81.29, -42.97 104.99 2.94 47
10 01/17/2020 12:45:02 -81.28,-144.52 75.61 01/17/2020 12:44:11 -81.27,-144.53 75.64 0.34 51




NCC Satellite Simultaneous Nadir Overpasses (SNOs) Prediction Service
